User: anonymous   Login
Location: Borovka
(49.7741°N, 14.5280°E)
Time: 03:57:32
(UTC+00:00)
Language:

DX 1 - Orbit

View from above orbital plane
View from above orbital plane
View from above satellite
View from above satellite

Ground track
Ground track

The orbit is defined by the following mean orbital elements,

1 40071U          26067.01230808 +.00000000 +00000-0 +25785-3 0 00008
2 40071  98.3763  22.6715 0005956 236.3575 123.7073 14.89612591    08
Epoch (UTC): 08 March 2026 00:17:43
Eccentricity: 0.0005956
inclination: 98.3763°
perigee height: 595 km
apogee height: 603 km
right ascension of ascending node: 22.6715°
argument of perigee: 236.3575°
revolutions per day: 14.89612591
mean anomaly at epoch: 123.7073°

The dashed part of the orbit path shows where the satellite is in the earth's shadow,  

DLR